Time,TemperatureF,DewpointF,PressureIn,WindDirection,WindDirectionDegrees,WindSpeedMPH,WindSpeedGustMPH,Humidity,HourlyPrecipIn,Conditions,Clouds,dailyrainin,SoftwareType,DateUTC
2013-11-07 00:10:00,65.9,65.0,30.05,NE,47,0.0,0.0,95,0.00,,,0.00,weatherlink.com 1.10,2013-11-07 05:10:00,
2013-11-07 00:25:00,65.8,64.0,30.04,NE,47,0.0,0.0,95,0.00,,,0.00,weatherlink.com 1.10,2013-11-07 05:25:00,
2013-11-07 00:40:00,65.4,64.0,30.04,NE,47,0.0,0.0,95,0.00,,,0.00,weatherlink.com 1.10,2013-11-07 05:40:00,
2013-11-07 00:56:00,65.0,64.0,30.04,NE,47,0.0,0.0,95,0.00,,,0.00,weatherlink.com 1.10,2013-11-07 05:56:00,
2013-11-07 01:11:00,65.2,64.0,30.03,NE,47,0.0,0.0,95,0.00,,,0.00,weatherlink.com 1.10,2013-11-07 06:11:00,
2013-11-07 01:26:00,65.1,64.0,30.03,NE,47,0.0,0.0,95,0.00,,,0.00,weatherlink.com 1.10,2013-11-07 06:26:00,
2013-11-07 01:41:00,65.4,64.0,30.03,NE,47,0.0,0.0,96,0.00,,,0.00,weatherlink.com 1.10,2013-11-07 06:41:00,
2013-11-07 01:56:00,65.4,64.0,30.02,NE,47,0.0,0.0,96,0.00,,,0.00,weatherlink.com 1.10,2013-11-07 06:56:00,
2013-11-07 02:11:00,64.9,64.0,30.02,NE,47,0.0,0.0,96,0.00,,,0.00,weatherlink.com 1.10,2013-11-07 07:11:00,
2013-11-07 02:26:00,65.2,64.0,30.01,NE,47,0.0,0.0,96,0.00,,,0.00,weatherlink.com 1.10,2013-11-07 07:26:00,
2013-11-07 02:41:00,65.5,64.0,30.01,NE,47,0.0,0.0,96,0.00,,,0.00,weatherlink.com 1.10,2013-11-07 07:41:00,
2013-11-07 02:56:00,65.8,65.0,30.01,NNE,32,0.0,1.0,96,0.00,,,0.00,weatherlink.com 1.10,2013-11-07 07:56:00,
2013-11-07 03:11:00,66.0,65.0,30.00,North,6,0.0,0.0,96,0.00,,,0.00,weatherlink.com 1.10,2013-11-07 08:11:00,
2013-11-07 03:26:00,65.8,65.0,30.00,North,6,0.0,0.0,96,0.00,,,0.00,weatherlink.com 1.10,2013-11-07 08:26:00,
2013-11-07 03:41:00,64.9,64.0,30.00,North,6,0.0,0.0,96,0.00,,,0.00,weatherlink.com 1.10,2013-11-07 08:41:00,
2013-11-07 03:56:00,64.6,64.0,30.00,North,6,0.0,0.0,96,0.00,,,0.00,weatherlink.com 1.10,2013-11-07 08:56:00,
2013-11-07 04:11:00,64.8,64.0,29.99,North,6,0.0,0.0,97,0.00,,,0.00,weatherlink.com 1.10,2013-11-07 09:11:00,
2013-11-07 04:26:00,64.9,64.0,29.99,North,6,0.0,0.0,97,0.00,,,0.00,weatherlink.com 1.10,2013-11-07 09:26:00,
2013-11-07 04:41:00,64.7,64.0,29.99,North,6,0.0,0.0,97,0.00,,,0.00,weatherlink.com 1.10,2013-11-07 09:41:00,
2013-11-07 04:56:00,64.6,64.0,29.99,North,6,0.0,0.0,97,0.00,,,0.00,weatherlink.com 1.10,2013-11-07 09:56:00,
2013-11-07 05:11:00,64.7,64.0,29.99,North,6,0.0,0.0,97,0.00,,,0.00,weatherlink.com 1.10,2013-11-07 10:11:00,
2013-11-07 05:26:00,64.9,64.0,30.00,North,6,0.0,0.0,97,0.00,,,0.00,weatherlink.com 1.10,2013-11-07 10:26:00,
2013-11-07 05:41:00,64.9,64.0,29.99,North,5,0.0,0.0,97,0.00,,,0.00,weatherlink.com 1.10,2013-11-07 10:41:00,
2013-11-07 05:56:00,65.2,64.0,30.00,NNW,341,0.0,2.0,97,0.00,,,0.00,weatherlink.com 1.10,2013-11-07 10:56:00,
2013-11-07 06:11:00,65.2,64.0,30.00,NNW,342,0.0,1.0,97,0.00,,,0.00,weatherlink.com 1.10,2013-11-07 11:11:00,
2013-11-07 06:26:00,65.2,64.0,30.00,NW,325,0.0,1.0,97,0.00,,,0.00,weatherlink.com 1.10,2013-11-07 11:26:00,
2013-11-07 06:41:00,65.0,64.0,30.02,North,360,0.0,0.0,97,0.00,,,0.00,weatherlink.com 1.10,2013-11-07 11:41:00,
2013-11-07 06:56:00,64.9,64.0,30.02,NW,325,1.0,2.0,97,0.00,,,0.00,weatherlink.com 1.10,2013-11-07 11:56:00,
2013-11-07 07:11:00,64.8,64.0,30.02,NNW,347,0.0,0.0,97,0.00,,,0.00,weatherlink.com 1.10,2013-11-07 12:11:00,
2013-11-07 07:26:00,64.9,64.0,30.02,NW,325,0.0,2.0,97,0.00,,,0.00,weatherlink.com 1.10,2013-11-07 12:26:00,
2013-11-07 07:41:00,65.1,64.0,30.03,NW,312,0.0,1.0,97,0.00,,,0.00,weatherlink.com 1.10,2013-11-07 12:41:00,
2013-11-07 07:56:00,65.2,64.0,30.04,NNW,345,1.0,3.0,97,0.00,,,0.00,weatherlink.com 1.10,2013-11-07 12:56:00,
2013-11-07 08:11:00,65.6,65.0,30.05,North,355,3.0,3.0,97,0.00,,,0.00,weatherlink.com 1.10,2013-11-07 13:11:00,
2013-11-07 08:26:00,66.0,65.0,30.05,NW,314,1.0,5.0,97,0.00,,,0.00,weatherlink.com 1.10,2013-11-07 13:26:00,
2013-11-07 08:41:00,66.4,66.0,30.05,NW,324,1.0,3.0,97,0.00,,,0.00,weatherlink.com 1.10,2013-11-07 13:41:00,
2013-11-07 08:56:00,67.1,66.0,30.05,NW,323,2.0,5.0,97,0.00,,,0.00,weatherlink.com 1.10,2013-11-07 13:56:00,
2013-11-07 09:11:00,67.6,67.0,30.05,NNW,347,2.0,4.0,97,0.00,,,0.00,weatherlink.com 1.10,2013-11-07 14:11:00,
2013-11-07 09:26:00,69.0,68.0,30.05,NNE,12,2.0,3.0,97,0.00,,,0.00,weatherlink.com 1.10,2013-11-07 14:26:00,
2013-11-07 09:41:00,69.5,68.0,30.05,NE,34,0.0,6.0,96,0.00,,,0.00,weatherlink.com 1.10,2013-11-07 14:41:00,
2013-11-07 09:56:00,70.7,69.0,30.06,NNE,32,2.0,4.0,95,0.00,,,0.00,weatherlink.com 1.10,2013-11-07 14:56:00,
2013-11-07 10:11:00,72.0,69.0,30.05,NE,34,2.0,4.0,91,0.00,,,0.00,weatherlink.com 1.10,2013-11-07 15:11:00,
2013-11-07 10:26:00,72.9,70.0,30.05,NNW,345,0.0,4.0,89,0.00,,,0.00,weatherlink.com 1.10,2013-11-07 15:26:00,
2013-11-07 10:42:00,73.7,70.0,30.05,WNW,297,3.0,5.0,87,0.00,,,0.00,weatherlink.com 1.10,2013-11-07 15:42:00,
2013-11-07 10:57:00,74.0,70.0,30.04,NW,307,1.0,5.0,87,0.00,,,0.00,weatherlink.com 1.10,2013-11-07 15:57:00,
2013-11-07 11:12:00,75.0,70.0,30.04,NNW,328,2.0,4.0,85,0.00,,,0.00,weatherlink.com 1.10,2013-11-07 16:12:00,
2013-11-07 11:27:00,76.0,71.0,30.04,North,352,4.0,6.0,83,0.00,,,0.00,weatherlink.com 1.10,2013-11-07 16:27:00,
2013-11-07 11:42:00,76.3,70.0,30.03,NNE,18,4.0,7.0,80,0.00,,,0.00,weatherlink.com 1.10,2013-11-07 16:42:00,
2013-11-07 11:57:00,76.9,70.0,30.03,NNE,15,3.0,5.0,80,0.00,,,0.00,weatherlink.com 1.10,2013-11-07 16:57:00,
2013-11-07 12:12:00,77.9,71.0,30.02,North,9,4.0,7.0,78,0.00,,,0.00,weatherlink.com 1.10,2013-11-07 17:12:00,
2013-11-07 12:27:00,78.6,70.0,30.01,NNE,18,4.0,8.0,74,0.00,,,0.00,weatherlink.com 1.10,2013-11-07 17:27:00,
2013-11-07 12:42:00,79.3,69.0,30.01,NE,53,4.0,9.0,70,0.00,,,0.00,weatherlink.com 1.10,2013-11-07 17:42:00,
2013-11-07 12:57:00,78.8,68.0,30.00,NNE,18,4.0,8.0,70,0.00,,,0.00,weatherlink.com 1.10,2013-11-07 17:57:00,
2013-11-07 13:12:00,78.5,69.0,30.00,WNW,297,5.0,8.0,73,0.00,,,0.00,weatherlink.com 1.10,2013-11-07 18:12:00,
2013-11-07 13:27:00,78.8,69.0,29.99,NW,326,4.0,8.0,73,0.00,,,0.00,weatherlink.com 1.10,2013-11-07 18:27:00,
2013-11-07 13:42:00,80.0,70.0,29.98,WNW,300,7.0,9.0,72,0.00,,,0.00,weatherlink.com 1.10,2013-11-07 18:42:00,
2013-11-07 13:57:00,79.4,69.0,29.97,North,351,3.0,6.0,71,0.00,,,0.00,weatherlink.com 1.10,2013-11-07 18:57:00,
2013-11-07 14:12:00,80.0,69.0,29.97,NW,325,3.0,7.0,70,0.00,,,0.00,weatherlink.com 1.10,2013-11-07 19:12:00,
2013-11-07 14:27:00,80.6,70.0,29.96,NW,311,5.0,8.0,69,0.00,,,0.00,weatherlink.com 1.10,2013-11-07 19:27:00,
2013-11-07 14:42:00,81.3,70.0,29.96,NW,325,3.0,8.0,68,0.00,,,0.00,weatherlink.com 1.10,2013-11-07 19:42:00,
2013-11-07 14:57:00,80.2,69.0,29.96,NNE,33,6.0,6.0,69,0.00,,,0.00,weatherlink.com 1.10,2013-11-07 19:57:00,
2013-11-07 15:12:00,79.7,70.0,29.96,NNW,329,2.0,6.0,71,0.00,,,0.00,weatherlink.com 1.10,2013-11-07 20:12:00,
2013-11-07 15:27:00,79.7,70.0,29.96,NW,315,2.0,7.0,71,0.00,,,0.00,weatherlink.com 1.10,2013-11-07 20:27:00,
2013-11-07 15:42:00,79.3,69.0,29.96,WNW,297,3.0,6.0,71,0.00,,,0.00,weatherlink.com 1.10,2013-11-07 20:42:00,
2013-11-07 15:57:00,79.1,68.0,29.96,NW,307,3.0,6.0,68,0.00,,,0.00,weatherlink.com 1.10,2013-11-07 20:57:00,
2013-11-07 16:12:00,79.0,68.0,29.96,North,354,2.0,6.0,68,0.00,,,0.00,weatherlink.com 1.10,2013-11-07 21:12:00,
2013-11-07 16:27:00,79.0,68.0,29.96,North,360,2.0,3.0,70,0.00,,,0.00,weatherlink.com 1.10,2013-11-07 21:27:00,
2013-11-07 16:42:00,78.5,68.0,29.96,NW,323,2.0,3.0,71,0.00,,,0.00,weatherlink.com 1.10,2013-11-07 21:42:00,
2013-11-07 16:57:00,78.1,68.0,29.96,North,351,1.0,3.0,71,0.00,,,0.00,weatherlink.com 1.10,2013-11-07 21:57:00,
2013-11-07 17:12:00,77.7,68.0,29.97,NNW,340,0.0,2.0,72,0.00,,,0.00,weatherlink.com 1.10,2013-11-07 22:12:00,
2013-11-07 17:27:00,77.1,68.0,29.97,NW,304,1.0,1.0,74,0.00,,,0.00,weatherlink.com 1.10,2013-11-07 22:27:00,
2013-11-07 17:42:00,76.8,68.0,29.98,NNW,343,1.0,2.0,75,0.00,,,0.00,weatherlink.com 1.10,2013-11-07 22:42:00,
2013-11-07 17:57:00,76.1,68.0,29.98,North,1,1.0,3.0,77,0.00,,,0.00,weatherlink.com 1.10,2013-11-07 22:57:00,
2013-11-07 18:12:00,75.7,68.0,29.99,North,359,2.0,2.0,76,0.00,,,0.00,weatherlink.com 1.10,2013-11-07 23:12:00,
2013-11-07 18:27:00,75.4,67.0,29.99,NNW,331,0.0,3.0,75,0.00,,,0.00,weatherlink.com 1.10,2013-11-07 23:27:00,
2013-11-07 18:42:00,75.0,67.0,29.99,North,349,1.0,3.0,76,0.00,,,0.00,weatherlink.com 1.10,2013-11-07 23:42:00,
2013-11-07 18:57:00,74.6,67.0,29.99,NNW,332,0.0,2.0,77,0.00,,,0.00,weatherlink.com 1.10,2013-11-07 23:57:00,
2013-11-07 19:12:00,73.1,67.0,30.00,NNW,332,0.0,0.0,80,0.00,,,0.00,weatherlink.com 1.10,2013-11-08 00:12:00,
2013-11-07 19:27:00,71.6,66.0,30.00,NNW,331,0.0,0.0,82,0.00,,,0.00,weatherlink.com 1.10,2013-11-08 00:27:00,
2013-11-07 19:43:00,69.9,65.0,30.00,NNW,332,0.0,0.0,84,0.00,,,0.00,weatherlink.com 1.10,2013-11-08 00:43:00,
2013-11-07 19:57:00,69.7,66.0,30.00,NNW,331,0.0,1.0,87,0.00,,,0.00,weatherlink.com 1.10,2013-11-08 00:57:00,
2013-11-07 20:12:00,70.2,66.0,30.01,West,274,0.0,1.0,87,0.00,,,0.00,weatherlink.com 1.10,2013-11-08 01:12:00,
2013-11-07 20:28:00,69.9,66.0,30.01,West,274,0.0,0.0,86,0.00,,,0.00,weatherlink.com 1.10,2013-11-08 01:28:00,
2013-11-07 20:43:00,69.2,66.0,30.01,West,274,0.0,0.0,88,0.00,,,0.00,weatherlink.com 1.10,2013-11-08 01:43:00,
2013-11-07 20:58:00,69.6,66.0,30.02,West,274,0.0,1.0,88,0.00,,,0.00,weatherlink.com 1.10,2013-11-08 01:58:00,
2013-11-07 21:13:00,69.5,66.0,30.02,West,274,0.0,0.0,88,0.00,,,0.00,weatherlink.com 1.10,2013-11-08 02:13:00,
2013-11-07 21:28:00,68.8,66.0,30.02,West,274,0.0,0.0,89,0.00,,,0.00,weatherlink.com 1.10,2013-11-08 02:28:00,
2013-11-07 21:43:00,68.0,65.0,30.01,West,274,0.0,0.0,89,0.00,,,0.00,weatherlink.com 1.10,2013-11-08 02:43:00,
2013-11-07 22:13:00,67.0,65.0,30.00,West,274,0.0,0.0,92,0.00,,,0.00,weatherlink.com 1.10,2013-11-08 03:13:00,
2013-11-07 22:28:00,67.3,65.0,30.01,WNW,284,0.0,0.0,92,0.00,,,0.00,weatherlink.com 1.10,2013-11-08 03:28:00,
2013-11-07 22:43:00,67.6,65.0,30.00,WNW,283,0.0,0.0,91,0.00,,,0.00,weatherlink.com 1.10,2013-11-08 03:43:00,
2013-11-07 22:58:00,67.1,65.0,30.00,WNW,284,0.0,0.0,92,0.00,,,0.00,weatherlink.com 1.10,2013-11-08 03:58:00,
2013-11-07 23:13:00,66.4,64.0,30.00,WNW,284,0.0,0.0,92,0.00,,,0.00,weatherlink.com 1.10,2013-11-08 04:13:00,
2013-11-07 23:28:00,65.6,63.0,30.01,WNW,283,0.0,0.0,92,0.00,,,0.00,weatherlink.com 1.10,2013-11-08 04:28:00,
2013-11-07 23:43:00,65.9,64.0,30.01,WNW,284,0.0,0.0,93,0.00,,,0.00,weatherlink.com 1.10,2013-11-08 04:43:00,
2013-11-07 23:58:00,65.6,64.0,30.00,WNW,284,0.0,0.0,93,0.00,,,0.00,weatherlink.com 1.10,2013-11-08 04:58:00,